Weather History for KHZE - April, 2014

Change the Weather History Date:

Wednesday, April 23, 2014

  Actual Average (KN60) Record (KN60)
Temperature  
Mean Temperature 44 °F -  
Max Temperature 57 °F 57 °F 85 °F (2012)
Min Temperature 28 °F 32 °F 16 °F (2008)
Degree Days  
Heating Degree Days 20    
Moisture  
Dew Point 38 °F    
Average Humidity 68    
Maximum Humidity 100    
Minimum Humidity 44    
Precipitation  
Precipitation 0.00 in - - ()
Sea Level Pressure  
Sea Level Pressure 29.60 in    
Wind  
Wind Speed 19 mph (SE)    
Max Wind Speed 32 mph    
Max Gust Speed 48 mph    
Visibility 10 miles    
Events Rain , Thunderstorm    
Averages and records for this station are not official NWS values.
T = Trace of Precipitation, MM = Missing Value Source: NWS Daily Summary

Daily Weather History Graph

Daily Weather History Graph

Search for Another Location

Airport or City:

Trip Planner

Search our weather history database for the weather conditions in past years. The results will help you decide how hot, cold, wet, or windy it might be!

Date:

Astronomy

Apr. 23, 2014 Rise Set
Actual Time 6:43 AM CDT 8:46 PM CDT
Civil Twilight 6:10 AM CDT 9:19 PM CDT
Nautical Twilight 5:29 AM CDT 10:00 PM CDT
Astronomical Twilight 4:44 AM CDT 10:46 PM CDT
Moon 3:41 AM CDT (4/23) 2:34 PM CDT (4/23)
Length of Visible Light 15h 09m
Length of Day
14h 03m
Waning Crescent, 34% of the Moon is Illuminated
Apr 23
Waning Crescent
Apr 29
New
May 6
First Quarter
May 14
Full
May 21
Last Quarter

Hourly Weather History & Observations

Time (CDT) Temp. Windchill Dew Point Humidity Pressure Visibility Wind Dir Wind Speed Gust Speed Precip Events Conditions
12:15 AM 53.6 °F - 32.0 °F 44% 29.67 in 10.0 mi ESE 24.2 mph 33.4 mph N/A   Overcast
12:35 AM 53.6 °F - 32.0 °F 44% 29.65 in 10.0 mi ESE 24.2 mph 41.4 mph N/A   Overcast
12:55 AM 51.8 °F - 33.8 °F 50% 29.65 in 10.0 mi ESE 20.7 mph 38.0 mph N/A   Mostly Cloudy
1:15 AM 53.6 °F - 32.0 °F 44% 29.65 in 10.0 mi ESE 21.9 mph 32.2 mph N/A   Overcast
1:35 AM 53.6 °F - 32.0 °F 44% 29.65 in 10.0 mi ESE 23.0 mph 31.1 mph N/A   Overcast
1:55 AM 51.8 °F - 32.0 °F 47% 29.65 in 10.0 mi ESE 18.4 mph 28.8 mph N/A   Overcast
2:15 AM 51.8 °F - 33.8 °F 50% 29.66 in 10.0 mi ESE 18.4 mph 25.3 mph N/A   Overcast
2:35 AM 51.8 °F - 35.6 °F 54% 29.64 in 10.0 mi ESE 15.0 mph 23.0 mph N/A   Overcast
2:55 AM 53.6 °F - 37.4 °F 54% 29.64 in 10.0 mi ESE 15.0 mph 27.6 mph N/A   Mostly Cloudy
3:15 AM 53.6 °F - 37.4 °F 54% 29.63 in 10.0 mi ESE 18.4 mph 26.5 mph N/A   Mostly Cloudy
3:35 AM 53.6 °F - 37.4 °F 54% 29.64 in 10.0 mi ESE 13.8 mph 21.9 mph N/A   Overcast
3:55 AM 53.6 °F - 37.4 °F 54% 29.65 in 10.0 mi East 13.8 mph 20.7 mph N/A   Overcast
4:15 AM 51.8 °F - 37.4 °F 58% 29.63 in 10.0 mi East 12.7 mph 21.9 mph N/A   Overcast
4:35 AM 53.6 °F - 35.6 °F 51% 29.60 in 10.0 mi ESE 21.9 mph 33.4 mph N/A   Overcast
4:55 AM 53.6 °F - 35.6 °F 51% 29.60 in 10.0 mi ESE 27.6 mph 40.3 mph N/A Thunderstorm Mostly Cloudy
5:15 AM 53.6 °F - 33.8 °F 47% 29.62 in 10.0 mi ESE 25.3 mph 34.5 mph N/A   Overcast
5:35 AM 53.6 °F - 35.6 °F 51% 29.62 in 10.0 mi ESE 25.3 mph 34.5 mph N/A   Overcast
5:55 AM 50.0 °F - 37.4 °F 62% 29.60 in 10.0 mi ESE 20.7 mph 34.5 mph N/A   Overcast
6:15 AM 48.2 °F - 41.0 °F 76% 29.57 in 6.0 mi ESE 23.0 mph 35.7 mph N/A   Haze
6:35 AM 46.4 °F 38.1 °F 41.0 °F 81% 29.55 in 8.0 mi ESE 24.2 mph 39.1 mph N/A   Mostly Cloudy
6:55 AM 48.2 °F - 39.2 °F 71% 29.56 in 10.0 mi SE 23.0 mph 36.8 mph N/A   Overcast
7:15 AM 48.2 °F - 39.2 °F 71% 29.56 in 10.0 mi SE 28.8 mph 44.9 mph N/A   Overcast
7:35 AM 50.0 °F - 37.4 °F 62% 29.55 in 10.0 mi ESE 27.6 mph 48.3 mph N/A   Overcast
7:55 AM 48.2 °F - 37.4 °F 66% 29.55 in 10.0 mi ESE 25.3 mph 38.0 mph N/A   Scattered Clouds
8:15 AM 48.2 °F - 37.4 °F 66% 29.55 in 10.0 mi ESE 24.2 mph 36.8 mph N/A   Clear
8:35 AM 48.2 °F - 37.4 °F 66% 29.56 in 10.0 mi ESE 20.7 mph 38.0 mph N/A   Clear
8:55 AM 50.0 °F - 37.4 °F 62% 29.57 in 10.0 mi ESE 19.6 mph 36.8 mph N/A   Clear
9:15 AM 50.0 °F - 37.4 °F 62% 29.54 in 10.0 mi ESE 20.7 mph 35.7 mph N/A   Clear
9:35 AM 50.0 °F - 37.4 °F 62% 29.53 in 10.0 mi SE 27.6 mph 35.7 mph N/A   Clear
9:55 AM 51.8 °F - 37.4 °F 58% 29.53 in 10.0 mi SE 20.7 mph 32.2 mph N/A   Clear
10:15 AM 53.6 °F - 37.4 °F 54% 29.51 in 10.0 mi SE 27.6 mph 39.1 mph N/A   Clear
10:35 AM 53.6 °F - 37.4 °F 54% 29.52 in 10.0 mi SSE 28.8 mph 40.3 mph N/A   Clear
10:55 AM 55.4 °F - 37.4 °F 51% 29.51 in 10.0 mi SSE 32.2 mph 41.4 mph N/A   Clear
11:15 AM 55.4 °F - 35.6 °F 47% 29.52 in 10.0 mi SSE 29.9 mph 42.6 mph N/A   Clear
11:35 AM 57.2 °F - 35.6 °F 44% 29.52 in 10.0 mi SSE 31.1 mph 38.0 mph N/A   Clear
12:35 PM 55.4 °F - 37.4 °F 51% 29.52 in 10.0 mi SSE 24.2 mph 32.2 mph N/A   Mostly Cloudy
12:55 PM 53.6 °F - 39.2 °F 58% 29.53 in 7.0 mi SSE 21.9 mph 29.9 mph N/A   Mostly Cloudy
1:15 PM 50.0 °F - 42.8 °F 76% 29.53 in 6.0 mi SSE 19.6 mph 27.6 mph N/A   Haze
1:35 PM 48.2 °F - 42.8 °F 82% 29.52 in 6.0 mi SE 15.0 mph 25.3 mph N/A   Haze
1:55 PM 48.2 °F - 44.6 °F 87% 29.52 in 8.0 mi SE 13.8 mph 17.3 mph N/A   Mostly Cloudy
2:15 PM 50.0 °F - 44.6 °F 82% 29.54 in 7.0 mi SSE 15.0 mph 20.7 mph N/A   Scattered Clouds
2:35 PM 53.6 °F - 44.6 °F 72% 29.52 in 10.0 mi SE 18.4 mph 26.5 mph N/A   Scattered Clouds
2:55 PM 51.8 °F - 44.6 °F 76% 29.53 in 10.0 mi SSE 13.8 mph - N/A   Partly Cloudy
3:15 PM 53.6 °F - 44.6 °F 72% 29.51 in 10.0 mi SE 20.7 mph 26.5 mph N/A   Mostly Cloudy
3:35 PM 53.6 °F - 44.6 °F 72% 29.52 in 10.0 mi SSE 19.6 mph 25.3 mph N/A   Overcast
3:55 PM 53.6 °F - 42.8 °F 67% 29.53 in 10.0 mi SSE 21.9 mph 27.6 mph N/A   Overcast
4:15 PM 55.4 °F - 44.6 °F 67% 29.53 in 10.0 mi SSE 20.7 mph 28.8 mph N/A   Overcast
4:35 PM 55.4 °F - 44.6 °F 67% 29.54 in 10.0 mi South 18.4 mph 27.6 mph N/A   Overcast
4:55 PM 55.4 °F - 44.6 °F 67% 29.55 in 10.0 mi South 18.4 mph 25.3 mph N/A   Overcast
5:15 PM 53.6 °F - 41.0 °F 62% 29.57 in 10.0 mi WSW 18.4 mph 27.6 mph N/A   Overcast
5:35 PM 50.0 °F - 39.2 °F 66% 29.58 in 10.0 mi West 20.7 mph 27.6 mph N/A   Overcast
5:55 PM 50.0 °F - 39.2 °F 66% 29.60 in 10.0 mi West 16.1 mph 24.2 mph N/A   Overcast
6:15 PM 48.2 °F - 41.0 °F 76% 29.61 in 10.0 mi West 18.4 mph 25.3 mph N/A Rain Light Rain
6:35 PM 48.2 °F - 39.2 °F 71% 29.63 in 10.0 mi West 17.3 mph 24.2 mph N/A   Overcast
6:55 PM 48.2 °F - 41.0 °F 76% 29.63 in 10.0 mi WNW 6.9 mph - N/A   Overcast
7:15 PM 48.2 °F - 39.2 °F 71% 29.65 in 10.0 mi WNW 11.5 mph - N/A   Overcast
7:35 PM 48.2 °F - 39.2 °F 71% 29.65 in 10.0 mi WNW 10.4 mph - N/A   Overcast
7:55 PM 46.4 °F 42.9 °F 39.2 °F 76% 29.65 in 10.0 mi NW 6.9 mph - N/A   Scattered Clouds
8:15 PM 44.6 °F 43.1 °F 39.2 °F 81% 29.65 in 10.0 mi NW 3.5 mph - N/A   Clear
8:35 PM 41.0 °F - 37.4 °F 87% 29.66 in 10.0 mi Calm Calm - N/A   Clear
8:55 PM 37.4 °F - 35.6 °F 93% 29.66 in 10.0 mi Calm Calm - N/A   Clear
9:15 PM 35.6 °F 30.7 °F 32.0 °F 87% 29.67 in 10.0 mi SSE 5.8 mph - N/A   Clear
9:35 PM 33.8 °F 28.6 °F 32.0 °F 93% 29.68 in 10.0 mi SSE 5.8 mph - N/A   Scattered Clouds
9:55 PM 33.8 °F 27.0 °F 32.0 °F 93% 29.69 in 10.0 mi SSE 8.1 mph - N/A   Partly Cloudy
10:15 PM 32.0 °F 27.5 °F 32.0 °F 100% 29.68 in 10.0 mi SSE 4.6 mph - N/A   Partly Cloudy
10:35 PM 32.0 °F 25.6 °F 32.0 °F 100% 29.69 in 10.0 mi SSE 6.9 mph - N/A   Clear
10:55 PM 32.0 °F - 32.0 °F 100% 29.69 in 10.0 mi Calm Calm - N/A   Clear
11:15 PM 32.0 °F 28.7 °F 32.0 °F 100% 29.69 in 10.0 mi SSE 3.5 mph - N/A   Clear
11:35 PM 32.0 °F - 32.0 °F 100% 29.69 in 10.0 mi Calm Calm - N/A   Partly Cloudy
11:55 PM 28.4 °F - 28.4 °F 100% 29.69 in 10.0 mi Calm Calm - N/A   Clear